Location: Llanfihangel-Ystrad
(52.1833°N, 4.1667°W)
Time: 16:23:22
(UTC+00:00)

METEOR-M - Pass Details

Date: 17 February 2020
Orbit: 815 x 820 km, 98.4° (Epoch: 07 April)

Event Time Altitude Azimuth Distance (km) Brightness Sun altitude
Rises 06:00:53 0° 13° (NNE) 3,363 7.5 -14.1°
Reaches altitude 10° 06:03:14 10° 12° (NNE) 2,426 6.7 -13.8°
Maximum altitude 06:08:35 74° 289° (WNW) 856 4.1 -13.0°
Drops below altitude 10° 06:13:54 10° 205° (SSW) 2,406 6.4 -12.1°
Sets 06:16:14 0° 204° (SSW) 3,333 7.1 -11.8°
